N8FIS Weather Reports


time (UTC)temp
C
wind
direction
speed
KPH
gust
KPH
rain 1hr
cm
rain 24hr
cm
rain mn
cm
humidity
%
barometer
mb
20260903043224 26 194 3.2 8.0 0.00 0.00 0.00 85 1012.4
20260903042732 26 253 3.2 6.4 0.00 0.00 0.00 85 1012.3
20260903042230 27 278 1.6 6.4 0.00 0.00 0.00 84 1012.3
20260903041717 27 252 3.2 16.1 0.00 0.00 0.00 84 1012.3
20260903041224 27 267 1.6 16.1 0.00 0.00 0.00 84 1012.2
20260903040732 27 213 1.6 11.3 0.00 0.00 0.00 84 1012.2
20260903040219 27 265 3.2 11.3 0.00 0.00 0.00 83 1012.1
20260903035726 27 236 1.6 16.1 0.00 0.00 0.00 83 1012.0
20260903035232 27 275 4.8 9.7 0.00 0.00 0.00 83 1012.0
20260903034718 27 219 3.2 9.7 0.00 0.00 0.00 83 1012.0
20260903034227 27 215 3.2 11.3 0.00 0.00 0.00 83 1011.8
20260903033734 27 209 6.4 11.3 0.00 0.00 0.00 83 1011.9
20260903033219 27 151 1.6 19.3 0.00 0.00 0.00 83 1011.7
20260903032725 27 308 8.0 19.3 0.00 0.00 0.00 83 1011.7
20260903032227 27 252 3.2 9.7 0.00 0.00 0.00 83 1011.7
20260903031734 27 285 3.2 14.5 0.00 0.00 0.00 83 1011.6
20260903031220 27 216 3.2 14.5 0.00 0.00 0.00 84 1011.5
20260903030729 27 214 4.8 14.5 0.00 0.00 0.00 84 1011.6
20260903030216 27 227 4.8 9.7 0.00 0.00 0.00 84 1011.7
20260903025722 27 286 4.8 9.7 0.00 0.00 0.00 84 1011.8
20260903025229 27 180 3.2 11.3 0.00 0.00 0.00 84 1011.9
20260903024716 27 205 3.2 11.3 0.00 0.00 0.00 84 1012.0
20260903024223 27 180 3.2 9.7 0.00 0.00 0.00 83 1012.0
20260903023730 27 176 6.4 11.3 0.00 0.00 0.00 83 1012.1
20260903023216 27 163 6.4 11.3 0.00 0.00 0.00 83 1012.2
20260903022724 27 294 4.8 9.7 0.00 0.00 0.00 83 1012.3
20260903022230 27 217 3.2 9.7 0.00 0.00 0.00 82 1012.3
20260903021716 27 183 4.8 9.7 0.00 0.00 0.00 82 1012.3
20260903021227 27 170 1.6 9.7 0.00 0.00 0.00 82 1012.3
20260903020714 27 177 4.8 8.0 0.00 0.00 0.00 82 1012.4
20260903020237 27 197 4.8 8.0 0.00 0.00 0.00 81 1012.4
20260903015718 27 207 4.8 8.0 0.00 0.00 0.00 81 1012.4
20260903015224 27 204 3.2 11.3 0.00 0.00 0.00 81 1012.4
20260903014729 28 229 4.8 11.3 0.00 0.00 0.00 81 1012.4
20260903014217 28 200 1.6 6.4 0.00 0.00 0.00 81 1012.5
20260903013723 28 181 3.2 6.4 0.00 0.00 0.00 80 1012.4
20260903013229 28 202 1.6 6.4 0.00 0.00 0.00 80 1012.4
20260903012715 28 185 3.2 9.7 0.00 0.00 0.00 80 1012.4
20260903012221 28 236 1.6 11.3 0.00 0.00 0.00 79 1012.3
20260903011727 28 182 1.6 11.3 0.00 0.00 0.00 79 1012.4
20260903011215 28 264 4.8 8.0 0.00 0.00 0.00 79 1012.3
20260903010721 28 204 1.6 6.4 0.00 0.00 0.00 79 1012.2
20260903010228 28 182 3.2 8.0 0.00 0.00 0.00 78 1012.2
20260903005717 28 201 3.2 8.0 0.00 0.00 0.00 78 1012.0
20260903005223 28 221 1.6 6.4 0.00 0.00 0.00 77 1012.0
20260903004730 28 228 1.6 6.4 0.00 0.00 0.00 77 1012.0
20260903004241 29 196 3.2 6.4 0.00 0.00 0.00 76 1012.1
20260903003727 29 171 1.6 6.4 0.00 0.00 0.00 75 1012.1
20260903003214 29 194 0.0 8.0 0.00 0.00 0.00 74 1012.1
20260903002738 30 262 3.2 8.0 0.00 0.00 0.00 74 1012.0
20260903002224 30 271 3.2 6.4 0.00 0.00 0.00 73 1012.0
20260903001715 30 250 1.6 6.4 0.00 0.00 0.00 73 1012.1
20260903001222 30 267 3.2 6.4 0.00 0.00 0.00 72 1012.2
20260903000729 30 186 1.6 6.4 0.00 0.00 0.00 72 1012.1
20260903000241 30 237 3.2 6.4 0.00 0.00 0.00 72 1012.0
20260902235731 30 235 3.2 8.0 0.00 0.00 0.00 71 1012.0
20260902235217 31 242 4.8 9.7 0.00 0.00 0.00 70 1012.0
20260902234723 31 259 4.8 11.3 0.00 0.00 0.00 70 1012.1
20260902234228 31 250 4.8 11.3 0.00 0.00 0.00 69 1012.0
20260902233742 31 269 4.8 8.0 0.00 0.00 0.00 68 1012.0
20260902233228 31 274 1.6 9.7 0.00 0.00 0.00 68 1012.0
20260902232712 31 249 4.8 9.7 0.00 0.00 0.00 67 1012.1
20260902232218 31 277 4.8 14.5 0.00 0.00 0.00 67 1012.0
20260902231721 31 228 3.2 14.5 0.00 0.00 0.00 66 1012.0
20260902231225 32 200 4.8 14.5 0.00 0.00 0.00 66 1012.0
20260902230730 32 240 4.8 14.5 0.00 0.00 0.00 66 1012.0
20260902230219 32 221 1.6 14.5 0.00 0.03 0.00 66 1011.9
20260902225726 32 272 3.2 9.7 0.00 0.03 0.00 65 1011.9
20260902225215 32 205 1.6 11.3 0.00 0.03 0.00 65 1011.9
20260902224722 32 5 4.8 19.3 0.00 0.03 0.00 65 1012.0
20260902224227 32 206 8.0 19.3 0.00 0.03 0.00 64 1011.9
20260902223717 32 263 8.0 17.7 0.00 0.03 0.00 65 1011.9
20260902223225 33 229 4.8 14.5 0.00 0.03 0.00 64 1012.0
20260902222713 33 320 4.8 11.3 0.00 0.03 0.00 64 1012.0
20260902222219 33 238 4.8 16.1 0.00 0.03 0.00 63 1012.0
20260902221727 33 234 4.8 16.1 0.00 0.03 0.00 62 1012.0
20260902221233 33 273 3.2 11.3 0.00 0.03 0.00 63 1012.1
20260902220720 33 254 4.8 20.9 0.00 0.03 0.00 63 1012.0
20260902220224 33 166 8.0 20.9 0.00 0.08 0.00 62 1011.9
20260902215731 33 360 8.0 19.3 0.00 0.08 0.00 62 1012.0
20260902215216 33 236 8.0 19.3 0.00 0.08 0.00 62 1012.1
20260902214725 33 189 6.4 19.3 0.00 0.08 0.00 61 1012.1
20260902214212 33 205 6.4 19.3 0.00 0.08 0.00 62 1012.1
20260902213718 34 294 6.4 11.3 0.00 0.08 0.00 62 1012.2
20260902213223 34 228 4.8 20.9 0.00 0.08 0.00 62 1012.3
20260902212731 35 290 6.4 20.9 0.00 0.08 0.00 59 1012.3
20260902212216 35 330 8.0 17.7 0.00 0.08 0.00 58 1012.2
20260902211723 35 263 3.2 16.1 0.00 0.08 0.00 59 1012.2
20260902211230 35 280 8.0 16.1 0.00 0.08 0.00 58 1012.3
20260902210716 35 275 6.4 19.3 0.00 0.08 0.00 57 1012.2
20260902210224 35 275 6.4 19.3 0.00 0.08 0.00 58 1012.3
20260902205731 35 259 4.8 17.7 0.00 0.08 0.00 58 1012.4
20260902205217 35 286 6.4 17.7 0.00 0.08 0.00 57 1012.4
20260902204722 35 278 4.8 22.5 0.00 0.08 0.00 57 1012.4
20260902204228 35 234 8.0 22.5 0.00 0.08 0.00 58 1012.5
20260902203715 35 240 6.4 16.1 0.00 0.08 0.00 59 1012.6
20260902203223 35 279 4.8 14.5 0.00 0.08 0.00 60 1012.7
20260902202731 35 285 4.8 16.1 0.00 0.08 0.00 60 1012.6
20260902202233 35 209 3.2 16.1 0.00 0.08 0.00 60 1012.8
20260902201719 35 242 9.7 16.1 0.00 0.08 0.00 58 1012.8
20260902201226 35 311 3.2 19.3 0.00 0.08 0.00 59 1012.8
20260902200731 35 355 6.4 19.3 0.00 0.08 0.00 58 1013.0
20260902200237 35 298 9.7 19.3 0.00 0.08 0.00 57 1012.9
20260902195726 35 286 4.8 19.3 0.00 0.08 0.00 60 1012.9
20260902195213 35 276 9.7 19.3 0.00 0.08 0.00 61 1013.0
20260902194721 35 333 6.4 17.7 0.00 0.08 0.00 61 1013.0
20260902194225 34 317 3.2 17.7 0.00 0.08 0.00 63 1013.1
20260902193728 34 221 8.0 16.1 0.00 0.08 0.00 63 1013.2
20260902193215 34 69 8.0 16.1 0.00 0.08 0.00 61 1013.3
20260902192722 34 360 8.0 16.1 0.00 0.08 0.00 61 1013.3
20260902192230 34 245 3.2 11.3 0.00 0.08 0.00 61 1013.3
20260902191716 34 281 3.2 19.3 0.00 0.08 0.00 61 1013.4
20260902191224 34 335 8.0 25.7 0.00 0.08 0.00 60 1013.4
20260902190713 34 211 8.0 20.9 0.00 0.08 0.00 61 1013.5
20260902190213 34 275 6.4 17.7 0.00 0.08 0.00 63 1013.5
20260902185718 34 265 8.0 17.7 0.00 0.08 0.00 64 1013.6
20260902185225 34 204 4.8 20.9 0.00 0.08 0.00 63 1013.6
20260902184739 34 182 8.0 20.9 0.00 0.08 0.00 60 1013.6
20260902184223 34 244 6.4 17.7 0.00 0.08 0.00 61 1013.8
20260902183730 33 273 8.0 20.9 0.00 0.08 0.00 61 1013.8
20260902183218 33 236 8.0 20.9 0.00 0.08 0.00 61 1013.8
20260902182724 34 194 6.4 19.3 0.00 0.08 0.00 61 1013.8
20260902182230 34 193 9.7 19.3 0.00 0.08 0.00 63 1013.9
20260902181716 34 277 3.2 16.1 0.00 0.08 0.00 63 1013.9
20260902181224 33 257 3.2 16.1 0.00 0.08 0.00 65 1013.9
20260902180712 34 231 6.4 14.5 0.00 0.08 0.00 64 1013.9
20260902180220 34 209 3.2 17.7 0.00 0.08 0.00 66 1013.9
20260902175727 33 238 4.8 17.7 0.00 0.08 0.00 67 1014.0
20260902175213 33 193 3.2 17.7 0.00 0.08 0.00 67 1014.1
20260902174738 33 222 8.0 17.7 0.00 0.08 0.00 67 1014.2
20260902174217 33 229 4.8 14.5 0.00 0.08 0.00 69 1014.2
20260902173728 33 232 3.2 14.5 0.00 0.08 0.00 67 1014.3
20260902173219 33 277 4.8 11.3 0.00 0.08 0.00 67 1014.3
20260902172725 33 281 3.2 14.5 0.00 0.08 0.00 69 1014.3
20260902172213 32 173 4.8 14.5 0.00 0.08 0.00 68 1014.4
20260902171718 33 296 3.2 14.5 0.00 0.08 0.00 68 1014.5
20260902171223 33 252 6.4 14.5 0.00 0.08 0.00 68 1014.5
20260902170712 32 273 6.4 14.5 0.00 0.08 0.00 69 1014.4
20260902170221 32 249 8.0 14.5 0.00 0.08 0.00 68 1014.5
20260902165728 33 275 4.8 17.7 0.00 0.08 0.00 68 1014.6
20260902165215 33 195 4.8 9.7 0.00 0.08 0.00 70 1014.7
20260902164721 32 302 4.8 14.5 0.00 0.08 0.00 70 1014.9
20260902164228 32 209 6.4 14.5 0.00 0.08 0.00 70 1015.0
20260902163717 32 360 6.4 9.7 0.00 0.08 0.00 69 1015.1
20260902163246 32 259 3.2 14.5 0.00 0.08 0.00 72 1015.1
20260902162714 32 273 6.4 14.5 0.00 0.08 0.00 72 1015.1
20260902162220 31 274 6.4 16.1 0.00 0.08 0.00 71 1015.0
20260902161726 31 290 4.8 16.1 0.00 0.08 0.00 71 1015.1
20260902161236 31 271 3.2 14.5 0.00 0.08 0.00 73 1015.1
20260902160723 31 218 3.2 16.1 0.00 0.08 0.00 73 1015.0
20260902160230 31 241 3.2 16.1 0.00 0.08 0.00 72 1015.1
20260902155741 31 221 4.8 11.3 0.00 0.08 0.00 72 1015.0
20260902155229 31 185 3.2 11.3 0.00 0.08 0.00 74 1015.0
20260902154716 31 250 3.2 11.3 0.00 0.08 0.00 74 1015.0
20260902154224 31 349 3.2 14.5 0.00 0.08 0.00 74 1014.9
20260902153731 31 236 6.4 14.5 0.00 0.08 0.00 72 1014.9
20260902153216 31 268 4.8 11.3 0.00 0.08 0.00 72 1015.0
20260902152724 31 172 6.4 12.9 0.00 0.08 0.00 73 1015.0
20260902152231 30 254 4.8 12.9 0.00 0.08 0.00 74 1015.0
20260902151743 30 337 1.6 12.9 0.00 0.08 0.00 75 1014.9
20260902151230 30 262 3.2 14.5 0.00 0.08 0.00 76 1014.8
20260902150745 30 265 4.8 14.5 0.00 0.08 0.00 76 1014.8
20260902150211 30 257 6.4 11.3 0.00 0.08 0.00 75 1014.8
20260902145713 30 266 3.2 14.5 0.00 0.08 0.00 77 1014.7
20260902145221 30 200 3.2 14.5 0.00 0.08 0.00 77 1014.7
20260902144727 29 134 4.8 9.7 0.00 0.08 0.00 77 1014.7
20260902144214 30 141 3.2 11.3 0.00 0.08 0.00 77 1014.7
20260902143721 29 211 3.2 11.3 0.00 0.08 0.00 77 1014.7
20260902143226 29 273 3.2 9.7 0.00 0.08 0.00 79 1014.6
20260902142711 29 209 1.6 11.3 0.00 0.08 0.00 80 1014.7
20260902142216 28 245 8.0 11.3 0.00 0.08 0.00 80 1014.7
20260902141723 28 187 4.8 9.7 0.00 0.08 0.00 81 1014.6
20260902141229 28 242 4.8 9.7 0.00 0.08 0.00 81 1014.6
20260902140742 28 257 4.8 9.7 0.00 0.08 0.00 82 1014.7
20260902140228 28 236 3.2 9.7 0.00 0.08 0.00 82 1014.7
20260902135714 27 278 4.8 9.7 0.00 0.08 0.00 82 1014.7
20260902135224 27 203 4.8 8.0 0.00 0.08 0.00 84 1014.7
20260902134712 27 160 3.2 9.7 0.00 0.08 0.00 85 1014.7
20260902134218 27 231 3.2 9.7 0.00 0.08 0.00 85 1014.6
20260902133724 27 211 3.2 9.7 0.00 0.08 0.00 86 1014.7
20260902133230 26 257 4.8 9.7 0.00 0.08 0.00 86 1014.6
20260902132742 26 250 3.2 9.7 0.00 0.08 0.00 88 1014.7
20260902132227 26 227 3.2 9.7 0.00 0.08 0.00 89 1014.8
20260902131733 25 221 3.2 6.4 0.00 0.08 0.00 90 1014.7
20260902131219 25 189 0.0 8.0 0.00 0.08 0.00 91 1014.7
20260902130727 25 261 4.8 8.0 0.00 0.08 0.00 91 1014.7
20260902130212 25 184 3.2 11.3 0.00 0.00 0.00 92 1014.6
20260902125720 24 246 8.0 11.3 0.00 0.00 0.00 93 1014.7
20260902125225 24 197 4.8 9.7 0.00 0.00 0.00 93 1014.8
20260902124711 23 194 3.2 9.7 0.00 0.00 0.00 94 1014.7
20260902124245 23 172 4.8 9.7 0.00 0.00 0.00 94 1014.8
20260902123729 23 178 3.2 8.0 0.00 0.00 0.00 94 1014.8
20260902123216 23 182 3.2 8.0 0.00 0.00 0.00 94 1014.8
20260902122745 23 205 3.2 8.0 0.00 0.00 0.00 94 1014.8
20260902122230 23 190 3.2 8.0 0.00 0.00 0.00 94 1014.8
20260902121716 23 171 3.2 6.4 0.00 0.00 0.00 94 1014.8
20260902121251 23 178 3.2 6.4 0.00 0.00 0.00 95 1014.8
20260902120717 23 256 0.0 6.4 0.00 0.00 0.00 95 1014.7
20260902120222 23 243 3.2 6.4 0.00 0.00 0.00 95 1014.7
20260902115729 23 221 0.0 6.4 0.00 0.00 0.00 95 1014.6
20260902115216 23 178 4.8 8.0 0.00 0.00 0.00 95 1014.6
20260902114748 23 252 1.6 8.0 0.00 0.00 0.00 95 1014.7
20260902114212 23 252 1.6 6.4 0.00 0.00 0.00 95 1014.5
20260902113717 23 225 3.2 4.8 0.00 0.00 0.00 95 1014.4
20260902113223 23 202 0.0 4.8 0.00 0.00 0.00 95 1014.3
20260902112715 23 194 3.2 4.8 0.00 0.00 0.00 95 1014.3
20260902112247 23 221 3.2 4.8 0.00 0.00 0.00 95 1014.3
20260902111712 23 192 1.6 4.8 0.00 0.00 0.00 95 1014.2
20260902111216 23 184 1.6 6.4 0.00 0.00 0.00 95 1014.2
20260902110723 23 255 0.0 6.4 0.00 0.00 0.00 95 1014.1
20260902110229 23 263 0.0 4.8 0.00 0.00 0.00 95 1014.1
20260902105714 23 263 0.0 4.8 0.00 0.00 0.00 95 1014.2
20260902105245 23 263 1.6 4.8 0.00 0.00 0.00 95 1014.2
20260902104730 23 239 1.6 3.2 0.00 0.00 0.00 95 1014.2
20260902104216 23 213 0.0 3.2 0.00 0.00 0.00 95 1014.2
20260902103746 23 231 1.6 4.8 0.00 0.00 0.00 95 1014.3
20260902103212 23 239 1.6 4.8 0.00 0.00 0.00 95 1014.3
20260902102718 23 255 0.0 4.8 0.00 0.00 0.00 95 1014.3
20260902102223 23 251 1.6 4.8 0.00 0.00 0.00 95 1014.3
20260902101730 23 273 1.6 4.8 0.00 0.00 0.00 95 1014.2
20260902101218 23 270 1.6 4.8 0.00 0.00 0.00 95 1014.2
20260902100749 23 249 0.0 4.8 0.00 0.00 0.00 95 1014.2
20260902100231 23 252 0.0 6.4 0.00 0.00 0.00 95 1014.3
20260902095742 23 234 0.0 6.4 0.00 0.00 0.00 95 1014.2
20260902095227 23 229 0.0 4.8 0.00 0.00 0.00 95 1014.1
20260902094713 23 231 1.6 4.8 0.00 0.00 0.00 95 1014.2
20260902094219 23 246 1.6 6.4 0.00 0.00 0.00 95 1014.1
20260902093727 23 209 0.0 6.4 0.00 0.00 0.00 95 1014.1
20260902093215 23 177 1.6 6.4 0.00 0.00 0.00 95 1014.0
20260902092723 23 188 3.2 6.4 0.00 0.00 0.00 95 1014.0
20260902092238 23 267 3.2 4.8 0.00 0.00 0.00 95 1014.1
20260902091748 23 215 3.2 4.8 0.00 0.00 0.00 95 1014.1
20260902091232 23 183 1.6 4.8 0.00 0.00 0.00 95 1014.1
20260902090723 23 181 1.6 4.8 0.00 0.00 0.00 95 1014.2
20260902090229 23 187 1.6 4.8 0.00 0.00 0.00 95 1014.2
20260902085715 23 190 0.0 3.2 0.00 0.00 0.00 96 1014.2
20260902085219 23 190 0.0 4.8 0.00 0.00 0.00 96 1014.2
20260902084725 23 184 3.2 4.8 0.00 0.00 0.00 96 1014.2
20260902084212 23 171 1.6 4.8 0.00 0.00 0.00 96 1014.2
20260902083719 23 171 1.6 4.8 0.00 0.00 0.00 96 1014.3
20260902083225 23 178 1.6 4.8 0.00 0.00 0.00 96 1014.1
20260902082710 23 178 1.6 4.8 0.00 0.00 0.00 96 1014.1
20260902082219 23 174 0.0 4.8 0.00 0.00 0.00 97 1014.1
20260902081726 23 182 0.0 4.8 0.00 0.00 0.00 97 1014.1
20260902081213 23 161 1.6 4.8 0.00 0.00 0.00 97 1014.0
20260902080719 23 219 0.0 3.2 0.00 0.00 0.00 97 1014.0
20260902080251 23 219 1.6 4.8 0.00 0.00 0.00 97 1013.9
20260902075741 23 163 0.0 4.8 0.00 0.00 0.00 97 1013.8
20260902075226 23 188 1.6 3.2 0.00 0.00 0.00 97 1013.7
20260902074712 23 186 0.0 6.4 0.00 0.00 0.00 97 1013.8
20260902074245 23 190 1.6 6.4 0.00 0.00 0.00 97 1013.8
20260902073725 23 189 1.6 6.4 0.00 0.00 0.00 97 1013.6
20260902073211 23 200 1.6 6.4 0.00 0.00 0.00 97 1013.6
20260902072718 23 182 1.6 6.4 0.00 0.00 0.00 97 1013.6
20260902072225 23 188 3.2 6.4 0.00 0.00 0.00 97 1013.6
20260902071713 23 184 1.6 4.8 0.00 0.00 0.00 97 1013.6
20260902071220 23 184 1.6 8.0 0.00 0.00 0.00 97 1013.6
20260902070728 23 178 3.2 8.0 0.00 0.00 0.00 97 1013.6
20260902070214 23 144 1.6 4.8 0.00 0.00 0.00 97 1013.6
20260902065720 23 173 0.0 0.0 0.00 0.00 0.00 97 1013.7
20260902065226 23 175 0.0 0.0 0.00 0.00 0.00 97 1013.8
20260902064713 23 167 0.0 0.0 0.00 0.00 0.00 97 1013.7
20260902064218 23 172 0.0 4.8 0.00 0.00 0.00 98 1013.7
20260902063724 23 171 1.6 4.8 0.00 0.00 0.00 98 1013.8
20260902063230 23 146 0.0 3.2 0.00 0.00 0.00 98 1013.8
20260902062717 23 146 0.0 1.6 0.00 0.00 0.00 98 1013.8
20260902062227 23 146 0.0 1.6 0.00 0.00 0.00 97 1013.9
20260902061732 23 146 0.0 0.0 0.00 0.00 0.00 97 1013.9
20260902061215 23 146 0.0 0.0 0.00 0.00 0.00 97 1013.9
20260902060726 23 146 0.0 0.0 0.00 0.00 0.00 97 1013.9
20260902060212 23 146 0.0 0.0 0.00 0.00 0.00 97 1014.0
20260902055721 23 146 0.0 0.0 0.00 0.00 0.00 97 1014.0
20260902055228 23 146 0.0 0.0 0.00 0.00 0.00 97 1014.0
20260902054740 23 146 0.0 0.0 0.00 0.00 0.00 97 1014.2
20260902054226 23 146 0.0 0.0 0.00 0.00 0.00 97 1014.2
20260902053717 23 146 0.0 0.0 0.00 0.00 0.00 97 1014.2
20260902053224 23 146 0.0 0.0 0.00 0.00 0.00 97 1014.2
20260902052730 23 146 0.0 0.0 0.00 0.00 0.00 97 1014.2
20260902052216 23 146 0.0 0.0 0.00 0.00 0.00 97 1014.2
20260902051725 23 146 0.0 0.0 0.00 0.00 0.00 97 1014.1
20260902051212 23 146 0.0 0.0 0.00 0.00 0.00 97 1014.1
20260902050720 23 146 0.0 0.0 0.00 0.00 0.00 97 1014.0
20260902050227 23 146 0.0 0.0 0.00 0.00 0.00 97 1014.1
20260902045714 23 146 0.0 0.0 0.00 0.00 0.00 97 1014.0
20260902045236 23 146 0.0 0.0 0.00 0.00 0.00 97 1014.0
20260902044722 23 146 0.0 0.0 0.00 0.00 0.00 97 1013.9
20260902044229 23 146 0.0 0.0 0.00 0.00 0.00 97 1013.8
20260902043716 23 146 0.0 0.0 0.00 0.00 0.00 97 1013.8